Terminal Aerodrome Forecast
Issued by NWS North Platte, NE

Home | Current Version | Previous Version | Text Only | Print | Product List | Glossary On
Versions: 1 2 3 4 5 6 7 8 9 10 11 12 13 14 15 16 17 18 19 20 21
000
FTUS43 KLBF 032300
TAFLBF
TAF
KLBF 032320Z 0400/0424 03013G20KT P6SM SCT250
     FM040400 04012G17KT P6SM SCT050 BKN100
      TEMPO 0412/0415 -TSRA BKN050CB
     FM041500 05013G21KT P6SM -SHRA BKN030 OVC050=

USA.gov is the U.S. government's official web portal to all federal, state and local government web resources and services.